Weather History for Cumberland, MD

Change the Weather History Date:

Wednesday, October 19, 2011

  Actual Average (KMRB) Record (KMRB)
Temperature  
Mean Temperature 58 °F 53 °F  
Max Temperature 62 °F 64 °F 84 °F (1953)
Min Temperature 53 °F 41 °F 25 °F (1948)
Degree Days  
Heating Degree Days 8 12  
Month to date heating degree days 183  
Since 1 July heating degree days 274  
Cooling Degree Days 0 0  
Month to date cooling degree days 8  
Year to date cooling degree days 893  
Growing Degree Days 8 (Base 50)    
Moisture  
Dew Point 55 °F    
Average Humidity 88    
Maximum Humidity 100    
Minimum Humidity 72    
Precipitation  
Precipitation 0.00 in 0.09 in 1.75 in (1932)
Month to date precipitation 1.88  
Year to date precipitation 31.69  
Sea Level Pressure  
Sea Level Pressure 29.62 in    
Wind  
Wind Speed 3 mph (North)    
Max Wind Speed 7 mph    
Max Gust Speed -    
Visibility 9 miles    
Events      
T = Trace of Precipitation, MM = Missing Value Source: NWS Daily Summary

Daily Weather History Graph

Daily Weather History Graph

Search for Another Location

Airport:

Trip Planner

Search our weather history database for the weather conditions in past years. The results will help you decide how hot, cold, wet, or windy it might be!

Date:

Astronomy

Oct. 19, 2011 Rise Set
Actual Time 7:29 AM EDT 6:30 PM EDT
Civil Twilight 7:01 AM EDT 6:57 PM EDT
Nautical Twilight 6:30 AM EDT 7:28 PM EDT
Astronomical Twilight 5:59 AM EDT 8:00 PM EDT
Moon No Moon Rise 1:58 PM EDT (10/19)
Length of Visible Light 11h 55m
Length of Day
11h 01m
Waning Gibbous, 55% of the Moon is Illuminated
Oct 19
Waning Gibbous
Oct 19
Last Quarter
Oct 26
New
Nov 2
First Quarter
Nov 10
Full

Hourly Weather History & Observations

Time (EDT) Temp. Dew Point Humidity Pressure Visibility Wind Dir Wind Speed Gust Speed Precip Events Conditions
12:07 AM 59.0 °F 51.8 °F 77% 29.77 in 10.0 mi North 4.6 mph - N/A   Clear
12:26 AM 60.8 °F 51.8 °F 72% 29.75 in 10.0 mi North 4.6 mph - N/A   Scattered Clouds
12:45 AM 59.0 °F 51.8 °F 77% 29.75 in 10.0 mi North 3.5 mph - N/A   Scattered Clouds
1:05 AM 59.0 °F 51.8 °F 77% 29.74 in 10.0 mi North 3.5 mph - N/A   Clear
1:24 AM 59.0 °F 51.8 °F 77% 29.73 in 10.0 mi NW 4.6 mph - N/A   Clear
1:43 AM 59.0 °F 51.8 °F 77% 29.72 in 10.0 mi NNW 4.6 mph - N/A   Clear
1:44 AM 59.0 °F 51.8 °F 77% 29.72 in 10.0 mi NNW 3.5 mph - N/A   Clear
2:03 AM 59.0 °F 51.8 °F 77% 29.71 in 10.0 mi NNW 4.6 mph - N/A   Clear
2:22 AM 59.0 °F 51.8 °F 77% 29.71 in 10.0 mi Calm Calm - N/A   Clear
2:42 AM 57.2 °F 51.8 °F 82% 29.70 in 10.0 mi Calm Calm - N/A   Clear
3:01 AM 55.4 °F 51.8 °F 88% 29.70 in 10.0 mi NNW 3.5 mph - N/A   Clear
3:20 AM 55.4 °F 51.8 °F 88% 29.68 in 10.0 mi NNW 3.5 mph - N/A   Clear
3:40 AM 55.4 °F 51.8 °F 88% 29.67 in 10.0 mi NNW 5.8 mph - N/A   Clear
3:59 AM 55.4 °F 51.8 °F 88% 29.67 in 10.0 mi North 3.5 mph - N/A   Clear
4:18 AM 53.6 °F 51.8 °F 94% 29.67 in 10.0 mi Calm Calm - N/A   Scattered Clouds
4:38 AM 55.4 °F 51.8 °F 88% 29.67 in 10.0 mi NW 4.6 mph - N/A   Overcast
4:57 AM 55.4 °F 53.6 °F 94% 29.67 in 10.0 mi NW 3.5 mph - N/A   Overcast
5:16 AM 55.4 °F 53.6 °F 94% 29.67 in 10.0 mi Calm Calm - N/A   Overcast
5:36 AM 55.4 °F 53.6 °F 94% 29.67 in 10.0 mi NW 4.6 mph - N/A   Scattered Clouds
5:55 AM 57.2 °F 53.6 °F 88% 29.67 in 10.0 mi NW 3.5 mph - N/A   Clear
6:14 AM 55.4 °F 53.6 °F 94% 29.67 in 10.0 mi Calm Calm - N/A   Clear
6:34 AM 55.4 °F 53.6 °F 94% 29.67 in 10.0 mi North 4.6 mph - N/A   Clear
6:53 AM 55.4 °F 53.6 °F 94% 29.66 in 10.0 mi NNE 3.5 mph - N/A   Clear
7:12 AM 55.4 °F 53.6 °F 94% 29.67 in 10.0 mi Calm Calm - N/A   Scattered Clouds
7:32 AM 55.4 °F 53.6 °F 94% 29.67 in 10.0 mi North 3.5 mph - N/A   Mostly Cloudy
7:51 AM 55.4 °F 53.6 °F 94% 29.66 in 10.0 mi NNE 4.6 mph - N/A   Overcast
8:10 AM 55.4 °F 53.6 °F 94% 29.65 in 10.0 mi Calm Calm - N/A   Overcast
8:29 AM 57.2 °F 55.4 °F 94% 29.65 in 10.0 mi Calm Calm - N/A   Overcast
8:49 AM 59.0 °F 55.4 °F 88% 29.66 in 10.0 mi Calm Calm - N/A   Overcast
9:08 AM 59.0 °F 55.4 °F 88% 29.65 in 10.0 mi WNW 3.5 mph - N/A   Overcast
9:27 AM 59.0 °F 55.4 °F 88% 29.65 in 10.0 mi Calm Calm - N/A   Overcast
9:47 AM 59.0 °F 55.4 °F 88% 29.65 in 7.0 mi Calm Calm - N/A   Overcast
10:06 AM 60.8 °F 57.2 °F 88% 29.64 in 10.0 mi Calm Calm - N/A   Overcast
10:25 AM 60.8 °F 57.2 °F 88% 29.62 in 10.0 mi Calm Calm - N/A   Overcast
10:45 AM 60.8 °F 55.4 °F 82% 29.62 in 7.0 mi Calm Calm - N/A   Mostly Cloudy
11:04 AM 60.8 °F 57.2 °F 88% 29.61 in 10.0 mi Calm Calm - N/A   Mostly Cloudy
11:23 AM 62.6 °F 57.2 °F 82% 29.60 in 10.0 mi North 3.5 mph - N/A   Mostly Cloudy
11:42 AM 62.6 °F 57.2 °F 82% 29.59 in 10.0 mi Calm Calm - N/A   Overcast
12:02 PM 62.6 °F 57.2 °F 82% 29.59 in 10.0 mi Calm Calm - N/A   Overcast
12:40 PM 62.6 °F 55.4 °F 77% 29.56 in 10.0 mi ENE 4.6 mph - N/A   Overcast
1:00 PM 62.6 °F 55.4 °F 77% 29.54 in 10.0 mi NE 6.9 mph - N/A   Mostly Cloudy
1:19 PM 62.6 °F 55.4 °F 77% 29.52 in 10.0 mi NE 4.6 mph - N/A   Mostly Cloudy
1:38 PM 62.6 °F 57.2 °F 82% 29.51 in 10.0 mi ENE 3.5 mph - N/A   Mostly Cloudy
1:58 PM 60.8 °F 57.2 °F 88% 29.49 in 2.5 mi NNE 3.5 mph - N/A   Overcast
2:17 PM 60.8 °F 59.0 °F 94% 29.47 in 3.0 mi Calm Calm - N/A   Overcast
2:36 PM 60.8 °F 59.0 °F 94% 29.47 in 3.0 mi Calm Calm - N/A   Overcast
2:55 PM 59.0 °F 59.0 °F 100% 29.45 in 1.5 mi NW 3.5 mph - N/A   Overcast
3:15 PM 59.0 °F 59.0 °F 100% 29.44 in 1.5 mi Calm Calm - N/A   Overcast
3:34 PM 59.0 °F 59.0 °F 100% 29.43 in 2.5 mi NNW 3.5 mph - N/A   Overcast
3:53 PM 59.0 °F 59.0 °F 100% 29.41 in 3.0 mi WNW 3.5 mph - N/A   Overcast
4:13 PM 59.0 °F 59.0 °F 100% 29.41 in 7.0 mi Calm Calm - N/A   Mostly Cloudy
4:32 PM 60.8 °F 60.8 °F 100% 29.40 in 7.0 mi Calm Calm - N/A   Mostly Cloudy
4:51 PM 60.8 °F 60.8 °F 100% 29.40 in 10.0 mi NNE 4.6 mph - N/A   Overcast
5:10 PM 60.8 °F 60.8 °F 100% 29.39 in 5.0 mi NNE 3.5 mph - N/A   Overcast
5:30 PM 60.8 °F 60.8 °F 100% 29.38 in 7.0 mi ENE 4.6 mph - N/A   Overcast
5:49 PM 60.8 °F 60.8 °F 100% 29.37 in 7.0 mi Calm Calm - N/A   Overcast
6:08 PM 60.8 °F 60.8 °F 100% 29.35 in 5.0 mi Calm Calm - N/A   Overcast
6:28 PM 60.8 °F 60.8 °F 100% 29.35 in 7.0 mi North 3.5 mph - N/A   Overcast
6:47 PM 60.8 °F 60.8 °F 100% 29.35 in 10.0 mi Calm Calm - N/A   Overcast
7:06 PM 60.8 °F 60.8 °F 100% 29.34 in 10.0 mi NE 4.6 mph - N/A   Overcast
7:25 PM 60.8 °F 60.8 °F 100% 29.34 in 7.0 mi Calm Calm - N/A   Overcast
7:45 PM 60.8 °F 60.8 °F 100% 29.33 in 3.0 mi Calm Calm - N/A   Overcast
8:04 PM 60.8 °F 60.8 °F 100% 29.31 in 3.0 mi Calm Calm - N/A   Overcast
8:23 PM 60.8 °F 60.8 °F 100% 29.31 in 5.0 mi West 3.5 mph - N/A   Overcast
8:43 PM 60.8 °F 60.8 °F 100% 29.30 in 10.0 mi NW 3.5 mph - N/A   Overcast
9:02 PM 60.8 °F 60.8 °F 100% 29.30 in 10.0 mi Calm Calm - N/A   Overcast
9:21 PM 60.8 °F 60.8 °F 100% 29.30 in 10.0 mi Calm Calm - N/A   Overcast
9:41 PM 60.8 °F 60.8 °F 100% 29.30 in 5.0 mi Calm Calm - N/A   Overcast
10:00 PM 60.8 °F 60.8 °F 100% 29.32 in 4.0 mi WSW 12.7 mph 18.4 mph N/A   Overcast
10:19 PM 57.2 °F 55.4 °F 94% 29.33 in 4.0 mi West 10.4 mph 25.3 mph N/A   Overcast
10:39 PM 57.2 °F 51.8 °F 82% 29.35 in 10.0 mi West 9.2 mph 25.3 mph N/A   Mostly Cloudy
10:58 PM 55.4 °F 50.0 °F 82% 29.34 in 10.0 mi West 13.8 mph 20.7 mph N/A   Overcast
11:17 PM 55.4 °F 50.0 °F 82% 29.35 in 7.0 mi Calm Calm - N/A   Overcast
11:37 PM 55.4 °F 51.8 °F 88% 29.35 in 10.0 mi East 3.5 mph - N/A   Mostly Cloudy
11:56 PM 53.6 °F 51.8 °F 94% 29.35 in 10.0 mi ESE 5.8 mph - N/A   Mostly Cloudy